Tracking 29933 objects as of 2-Dec-2024
HD Live streaming from Space Station
objects crossing your sky now

STARLINK-11238

Track STARLINK-11238 now!
10-day predictions
STARLINK-11238 is classified as:


NORAD ID: 60928
Int'l Code: 2024-155E
Perigee: 366.4 km
Apogee: 367.2 km
Inclination: 53.2 °
Period: 91.7 minutes
Semi major axis: 6737 km
RCS: Unknown
Launch date: August 31, 2024
Source: United States (US)
Launch site: AIR FORCE WESTERN TEST RANGE (AFWTR)
Your satellite tracking list
Your tracking list is empty




NASA's NSSDC Master Catalog

Two Line Element Set (TLE):
1 60928U 24155E   24336.75970282 -.00003643  00000-0 -25224-4 0  9997
2 60928  53.1575 103.3591 0000588  89.3225 270.7860 15.69717061 15745
Source of the keplerian elements: AFSPC